Regional Weather Roundup
Issued by NWS Newport/Morehead, NC

Current Version | Previous Version | Graphics & Text | Print | Product List | Glossary On
Versions: 1 2 3 4 5 6 7 8 9 10 11 12 13 14 15 16 17 18 19 20 21 22 23 24 25 26 27 28 29 30 31 32 33 34 35 36 37 38 39 40 41 42 43 44 45 46 47 48 49 50
000 ASUS42 KMHX 251626 RWRMHX WEATHER ROUNDUP FOR EASTERN NORTH CAROLINA NATIONAL WEATHER SERVICE NEWPORT/MOREHEAD CITY NC 1200 PM EDT TUE JUL 25 2017 NOTE: "FAIR" INDICATES FEW OR NO CLOUDS BELOW 12,000 FEET WITH NO SIGNIFICANT WEATHER AND/OR OBSTRUCTIONS TO VISIBILITY NCZ015>017-031-032-045>047-102-103-251700- NORTH COAST CITY SKY/WX TMP DP RH WIND PRES REMARKS EDENTON CLOUDY 84 73 69 CALM 30.07R ELIZABETH CITY MOSUNNY 85 72 65 N9 30.06R KITTY HAWK PTSUNNY 77 70 77 N8 30.05S MANTEO PTSUNNY 80 72 75 NE9 30.06S $$ NCZ045>047-081-094-103-104-251700- CENTRAL COAST CITY SKY/WX TMP DP RH WIND PRES REMARKS FRISCO CLOUDY 83 75 77 VRB3 30.05S $$ NCZ095-097-098-100-101-251700- SOUTHERN COAST CITY SKY/WX TMP DP RH WIND PRES REMARKS BEAUFORT SUNNY 86 78 77 SW9 30.05S CEDAR ISLAND NOT AVBL JACKSONVILLE MOSUNNY 87 77 72 E5 30.04S PINEY ISLAND MOSUNNY N/A N/A N/A CALM 30.04S WILMINGTON PTSUNNY 88 75 65 S5 30.04F $$ NCZ011>013-027>030-043-044-078>080-089-090>093-098-251700- COASTAL PLAIN CITY SKY/WX TMP DP RH WIND PRES REMARKS AHOSKIE N/A 82 73 72 NE3 30.06S CLINTON SUNNY 89 75 62 N3 30.05F ELIZABETHTOWN NOT AVBL GOLDSBORO MOSUNNY 89 72 56 W3 30.04S GREENVILLE MOSUNNY 88 73 62 NW5 30.06S HAVELOCK SUNNY 90 75 61 CALM 30.05S HX 100 KENANSVILLE SUNNY 88 72 58 CALM 30.05F KINSTON SUNNY 90 72 55 N3 30.06R NEW BERN SUNNY 87 75 67 CALM 30.05S RICHLANDS SUNNY 88 76 67 CALM 30.05F ROCKY MOUNT MOSUNNY 87 73 62 N5 30.06R WASHINGTON SUNNY 85 75 71 CALM 30.05S WHITEVILLE PTSUNNY 87 76 69 SW3 30.05F $$ AMZ130-135-150-152-154-156-158-170-250-252-270-ANZ085-086-088-633-658-670-251700- MARINE OBSERVATIONS STATION/POSITION TIME TEMP WIND PRES WAVE SWELL AIR SEA DIR/SP/G HT/PER HT/PER (UTC) (F) (DEG/KT/KT) (MB) (FT/S) (FT/S) CHESAPEAKE LIGHT NOT AVBL 64 E VA BEACH 1550 76 77 350/ 14/ 16 1017.5 4/ 6 2/11 DUCK 1600 74 68 30/ 12/ 14 1017.4 2 E DUCK 1600 74 N/A 2/11 OREGON INLET 1600 79 77 350/ 10/ 15 1017.4 13E OREGON INLT 1548 73 N/A 3/ 6 3/ 6 HATTERAS CG 1600 81 78 280/ 4/ 5 1017.5 DIAMOND BUOY 1550 80 84 270/ 10/ 12 1017.3 4/ 6 3/ 6 CAPE LOOKOUT 1600 82 230/ 9/ 11 1017.3 BEAUFORT LAB 1600 84 79 220/ 6/ 9 1016.9 30 SE NEW RVR IN 1608 82 84 230/ 10/ 12 1017.8 30 SE NEW RVR IN 1613 84 N/A 3/ 6 27 SE WRIGHTSVLE 1608 83 83 220/ 8/ 12 1017.8 5 SE WRIGHTSVLE 1608 82 83 200/ 10/ 14 1017.5 225 S CAPE HAT 1550 83 83 250/ 14/ 16 1020.7 4/ 6 2/ 9 41 SE CHARLESTON 1610 81 83 250/ 10/ 12 1018.1 $$

USA.gov is the U.S. government's official web portal to all federal, state and local government web resources and services.